Location: Beugnon
(47.6222°N, 3.7850°E)
Time: 01:01:50
(UTC+00:00)

GEOS 3 Rocket - Pass Details

Date: 09 April 2020
Orbit: 774 x 845 km, 115.0° (Epoch: 30 May)

Event Time Altitude Azimuth Distance (km) Brightness Sun altitude
Exits shadow 19:27:21 - 158° (SSE) 2,906 6.1 -10.5°
Reaches altitude 10° 19:28:46 10° 162° (SSE) 2,352 5.6 -10.7°
Maximum altitude 19:33:41 48° 236° (WSW) 1,040 4.4 -11.5°
Drops below altitude 10° 19:38:44 10° 311° (NW) 2,411 7.4 -12.2°
Sets 19:41:09 0° 317° (NW) 3,358 8.3 -12.6°
